Powrót do katalogu

YUNHAI 2-1F

AktywnyPogodaLEO
NORAD 43915·PAYLOAD·🇨🇳 China

Wystrzelony Dec 29, 2018 z Jiuquan Satellite Launch Center

Loading…

Następne Przeloty (najbliższe 24 godziny)

TLE

ŚwieżeSource: Space-Track

Epoka: Sep 14, 2026, 14:39 UTC

1 43915U 18112G   26257.61064711  .00000020  00000-0  71285-4 0  9992
2 43915  50.0100 208.0514 0007231 283.3111  76.6998 14.29057320401094

Śledź YUNHAI 2-1F w czasie rzeczywistym z AllMySat

Download on the App Store